Date String (YYYY-MM-DD hh:mm:ss) UTC,Instrument flags,Ambient pressure (hPa),Sample flow (lpm),Bypass flow (lpm),Sample temperature (°C),Ambient temperature (°C),ASC tube jacket temperature (°C),LED temperature (°C),Box temperature (°C),Sample RH (%),Span deviation,Mass concentration (μg/m³),Mass concentration (μg/m³),Mass concentration (μg/m³)
DateTimeUTC,F1_M11,P_M11,Q1_M11,Q2_M11,T1_M11,T2_M11,T3_M11,T4_M11,T5_M11,U1_M11,ZSPAN_M11,X0_M11,X2_M11,X1_M11
2022-04-05 05:00:00,,0810.5,4.99,0.00,28.0,26.9,00.0,37.1,29.8,10.0,0000.0,0013.93,0004.43,0002.21
2022-04-05 05:01:00,,0810.3,5.01,0.00,28.0,27.0,00.0,37.1,29.7,10.1,0000.0,0013.62,0004.41,0002.21
2022-04-05 05:02:00,,0810.4,4.98,0.00,28.0,27.0,00.0,37.1,29.7,10.2,0000.0,0014.28,0004.43,0002.22
2022-04-05 05:03:00,,0810.5,5.01,0.00,28.0,27.0,00.0,37.0,29.7,10.1,0000.0,0015.38,0004.47,0002.19
2022-04-05 05:04:00,,0810.4,5.00,0.00,27.9,26.9,00.0,37.0,29.6,10.0,0000.0,0015.33,0004.48,0002.18
2022-04-05 05:05:00,,0810.3,5.00,0.00,27.9,26.9,00.0,37.0,29.6,10.0,0000.0,0015.64,0004.44,0002.16
2022-04-05 05:06:00,,0810.4,5.01,0.00,27.9,26.9,00.0,37.0,29.6,10.0,0000.0,0015.94,0004.47,0002.13
2022-04-05 05:07:00,,0810.3,4.99,0.00,27.9,26.9,00.0,37.0,29.6,10.1,0000.0,0015.59,0004.50,0002.12
2022-04-05 05:08:00,,0810.4,5.02,0.00,27.8,26.9,00.0,37.0,29.6,10.1,0000.0,0015.45,0004.44,0002.11
2022-04-05 05:09:00,,0810.5,5.01,0.00,27.8,26.9,00.0,37.0,29.6,10.1,0000.0,0015.54,0004.42,0002.10
2022-04-05 05:10:00,,0810.5,4.99,0.00,27.8,26.9,00.0,36.9,29.6,10.1,0000.0,0015.05,0004.39,0002.10
2022-04-05 05:11:00,,0810.5,4.99,0.00,27.9,27.0,00.0,36.9,29.6,10.1,0000.0,0015.21,0004.35,0002.11
2022-04-05 05:12:00,,0810.2,5.01,0.00,27.9,27.0,00.0,36.9,29.7,10.2,0000.0,0015.33,0004.34,0002.12
2022-04-05 05:13:00,,0810.1,5.00,0.00,27.9,27.0,00.0,36.9,29.6,10.3,0000.0,0015.74,0004.35,0002.10
2022-04-05 05:14:00,,0810.2,5.00,0.00,27.9,27.1,00.0,36.9,29.7,10.3,0000.0,0014.59,0004.32,0002.10
2022-04-05 05:15:00,,0810.2,5.01,0.00,27.9,27.1,00.0,36.9,29.7,10.3,0000.0,0014.35,0004.32,0002.10
2022-04-05 05:16:00,,0810.2,4.99,0.00,27.9,27.1,00.0,36.9,29.7,10.2,0000.0,0015.20,0004.42,0002.11
2022-04-05 05:17:00,,0810.3,5.00,0.00,27.9,27.0,00.0,36.9,29.7,10.2,0000.0,0015.27,0004.49,0002.11
2022-04-05 05:18:00,,0810.5,5.01,0.00,27.9,27.0,00.0,36.9,29.6,10.2,0000.0,0015.28,0004.45,0002.09
2022-04-05 05:19:00,,0810.6,4.98,0.00,27.9,27.0,00.0,36.9,29.6,10.3,0000.0,0015.37,0004.43,0002.08
2022-04-05 05:20:00,,0810.5,5.00,0.00,27.9,27.0,00.0,36.9,29.7,10.2,0000.0,0015.00,0004.40,0002.07
2022-04-05 05:21:00,,0810.5,5.02,0.00,27.9,27.1,00.0,36.9,29.7,10.2,0000.0,0015.39,0004.43,0002.06
2022-04-05 05:22:00,,0810.5,4.98,0.00,27.9,27.1,00.0,36.9,29.7,10.1,0000.0,0015.16,0004.44,0002.06
2022-04-05 05:23:00,,0810.4,5.01,0.00,27.9,27.1,00.0,36.9,29.6,10.1,0000.0,0014.69,0004.45,0002.07
2022-04-05 05:24:00,,0810.6,5.00,0.00,27.9,27.1,00.0,36.9,29.6,10.2,0000.0,0013.72,0004.43,0002.07
2022-04-05 05:25:00,,0810.6,4.98,0.00,27.9,27.0,00.0,36.9,29.6,10.2,0000.0,0013.65,0004.45,0002.08
2022-04-05 05:26:00,,0810.6,5.01,0.00,27.9,27.0,00.0,36.9,29.6,10.2,0000.0,0013.28,0004.41,0002.07
2022-04-05 05:27:00,,0810.4,5.00,0.00,27.9,27.0,00.0,36.9,29.7,10.2,0000.0,0011.92,0004.31,0002.07
2022-04-05 05:28:00,,0810.4,4.99,0.00,27.9,27.0,00.0,36.9,29.6,10.4,0000.0,0011.44,0004.24,0002.08
2022-04-05 05:29:00,,0810.3,5.01,0.00,27.9,27.0,00.0,36.9,29.7,10.5,0000.0,0011.42,0004.24,0002.10
2022-04-05 05:30:00,,0810.3,4.99,0.00,27.9,27.0,00.0,36.9,29.7,10.5,0000.0,0010.98,0004.21,0002.10
2022-04-05 05:31:00,,0809.9,4.99,0.00,27.9,27.0,00.0,36.9,29.6,10.5,0000.0,0010.88,0004.18,0002.12
2022-04-05 05:32:00,,0810.1,5.01,0.00,27.8,26.9,00.0,36.8,29.5,10.5,0000.0,0010.57,0004.11,0002.12
2022-04-05 05:33:00,,0810.1,4.98,0.00,27.8,26.9,00.0,36.8,29.5,10.6,0000.0,0010.68,0004.09,0002.10
2022-04-05 05:34:00,,0809.8,5.01,0.00,27.8,26.9,00.0,36.8,29.5,10.7,0000.0,0010.53,0004.02,0002.05
2022-04-05 05:35:00,,0809.9,5.00,0.00,27.8,26.9,00.0,36.8,29.5,10.9,0000.0,0010.55,0004.02,0002.03
2022-04-05 05:36:00,,0810.1,4.99,0.00,27.8,26.8,00.0,36.8,29.5,11.0,0000.0,0010.93,0004.07,0002.02
2022-04-05 05:37:00,,0809.9,5.01,0.00,27.8,26.8,00.0,36.8,29.5,10.9,0000.0,0011.69,0004.10,0002.01
2022-04-05 05:38:00,,0810.2,5.00,0.00,27.8,26.8,00.0,36.8,29.5,10.9,0000.0,0012.61,0004.11,0001.99
2022-04-05 05:39:00,,0810.2,4.98,0.00,27.7,26.8,00.0,36.8,29.5,11.0,0000.0,0013.19,0004.10,0001.98
2022-04-05 05:40:00,,0810.2,5.01,0.00,27.7,26.8,00.0,36.8,29.4,11.0,0000.0,0013.61,0004.12,0001.97
2022-04-05 05:41:00,,0809.9,5.01,0.00,27.7,26.7,00.0,36.8,29.4,11.0,0000.0,0014.01,0004.10,0001.97
2022-04-05 05:42:00,,0809.9,5.02,0.00,27.7,26.7,00.0,36.8,29.4,10.9,0000.0,0014.21,0004.15,0001.95
2022-04-05 05:43:00,,0810.0,4.99,0.00,27.7,26.6,00.0,36.7,29.4,10.9,0000.0,0014.02,0004.20,0001.96
2022-04-05 05:44:00,,0810.2,5.00,0.00,27.7,26.7,00.0,36.7,29.4,11.0,0000.0,0013.61,0004.19,0001.97
2022-04-05 05:45:00,,0810.2,4.99,0.00,27.6,26.6,00.0,36.7,29.3,10.9,0000.0,0013.86,0004.24,0001.99
2022-04-05 05:46:00,,0810.1,5.01,0.00,27.6,26.5,00.0,36.7,29.3,10.8,0000.0,0013.72,0004.22,0001.99
2022-04-05 05:47:00,,0809.9,5.00,0.00,27.5,26.5,00.0,36.7,29.2,10.7,0000.0,0014.84,0004.17,0001.98
2022-04-05 05:48:00,,0809.9,4.99,0.00,27.5,26.6,00.0,36.7,29.3,10.6,0000.0,0014.70,0004.24,0002.00
2022-04-05 05:49:00,,0810.2,4.99,0.00,27.5,26.6,00.0,36.7,29.3,10.7,0000.0,0014.21,0004.26,0002.00
2022-04-05 05:50:00,,0810.1,5.00,0.00,27.5,26.6,00.0,36.6,29.3,10.8,0000.0,0014.14,0004.31,0002.01
2022-04-05 05:51:00,,0810.0,4.99,0.00,27.5,26.5,00.0,36.6,29.2,10.6,0000.0,0013.94,0004.35,0002.02
2022-04-05 05:52:00,,0810.1,4.99,0.00,27.5,26.5,00.0,36.6,29.2,10.5,0000.0,0013.72,0004.41,0002.02
2022-04-05 05:53:00,,0809.9,5.02,0.00,27.5,26.5,00.0,36.6,29.2,10.6,0000.0,0013.57,0004.35,0002.00
2022-04-05 05:54:00,,0809.8,5.00,0.00,27.5,26.5,00.0,36.6,29.2,10.5,0000.0,0013.62,0004.31,0001.96
2022-04-05 05:55:00,,0809.7,4.98,0.00,27.5,26.5,00.0,36.6,29.3,10.5,0000.0,0014.62,0004.31,0001.94
2022-04-05 05:56:00,,0809.9,5.00,0.00,27.5,26.5,00.0,36.5,29.3,10.5,0000.0,0015.01,0004.29,0001.92
2022-04-05 05:57:00,,0809.9,5.01,0.00,27.5,26.5,00.0,36.5,29.3,10.6,0000.0,0015.35,0004.25,0001.90
2022-04-05 05:58:00,,0810.0,5.01,0.00,27.5,26.4,00.0,36.5,29.3,10.5,0000.0,0013.99,0004.21,0001.89
2022-04-05 05:59:00,,0810.0,4.99,0.00,27.5,26.5,00.0,36.5,29.2,10.5,0000.0,0013.93,0004.14,0001.86
